Location: Erdweis
(48.5167°N, 15.3500°E)
Time: 10:13:18
(UTC+00:00)

X-37B - Pass Details

Date: 29 November 2020
Orbit: 384 x 390 km, 45.0° (Epoch: 02 January)

Event Time Altitude Azimuth Distance (km) Brightness Sun altitude
Rises 17:45:17 0° 245° (WSW) 2,262 5.6 -25.5°
Reaches altitude 10° 17:47:25 10° 236° (WSW) 1,410 4.2 -25.9°
Enters shadow 17:48:26 18° 227° (SW) 1,044 3.3 -26.0°
